Weather History for PPIZ - January, 2013

Change the Weather History Date:

Tuesday, January 29, 2013

  Actual Average Record
Temperature  
Mean Temperature -30 °F -  
Max Temperature -27 °F -9 °F 29 °F (2014)
Min Temperature -33 °F -20 °F -34 °F (2002)
Degree Days  
Heating Degree Days 95    
Moisture  
Dew Point -36 °F    
Average Humidity 68    
Maximum Humidity 69    
Minimum Humidity 68    
Precipitation  
Precipitation 0.00 in - - ()
Sea Level Pressure  
Sea Level Pressure 30.21 in    
Wind  
Wind Speed 0 mph (North)    
Max Wind Speed 0 mph    
Max Gust Speed -    
Visibility 8 miles    
Events      
Averages and records for this station are not official NWS values.
T = Trace of Precipitation, MM = Missing Value Source: NWS Daily Summary

Daily Weather History Graph

Daily Weather History Graph

Search for Another Location

Airport or City:

Trip Planner

Search our weather history database for the weather conditions in past years. The results will help you decide how hot, cold, wet, or windy it might be!

Date:

Astronomy

Jan. 29, 2013 Rise Set
Actual Time 11:45 AM AKST 4:25 PM AKST
Civil Twilight 10:18 AM AKST 5:53 PM AKST
Nautical Twilight 8:59 AM AKST 7:12 PM AKST
Astronomical Twilight 7:49 AM AKST 8:22 PM AKST
Moon 10:11 PM AKST (1/29) 10:28 AM AKST (1/29)
Length of Visible Light 7h 35m
Length of Day
4h 40m
Waning Gibbous, 93% of the Moon is Illuminated
Jan 29
Waning Gibbous
Feb 3
Last Quarter
Feb 9
New
Feb 17
First Quarter
Feb 25
Full

Hourly Weather History & Observations

Time (AKST) Temp. Dew Point Humidity Pressure Visibility Wind Dir Wind Speed Gust Speed Precip Events Conditions
10:56 AM -28.8 °F -35.9 °F 69% 30.28 in 10.0 mi Calm Calm - N/A   Unknown
11:56 AM -29.9 °F - N/A% 30.27 in 10.0 mi Calm Calm - 0.00 in   Clear
12:56 PM -33.0 °F - N/A% 30.25 in 10.0 mi Calm Calm - N/A   Unknown
1:56 PM -29.9 °F - N/A% 30.24 in 10.0 mi Calm Calm - N/A   Unknown
2:30 PM -29.2 °F - N/A% 30.23 in 10.0 mi Calm Calm - N/A   Scattered Clouds
2:39 PM -29.2 °F - N/A% 30.23 in 10.0 mi Calm Calm - N/A   Mostly Cloudy
3:43 PM -29.2 °F - N/A% 30.21 in 1.8 mi Calm Calm - N/A   Overcast
3:46 PM -29.2 °F - N/A% 30.21 in 1.0 mi Calm Calm - N/A   Overcast
3:56 PM -29.9 °F - N/A% 30.23 in 1.5 mi Calm Calm - N/A   Overcast
3:59 PM -29.2 °F - N/A% 30.21 in 3.0 mi Calm Calm - N/A   Overcast
4:29 PM -29.2 °F -36.4 °F 68% 30.20 in 1.8 mi Calm Calm - 0.00 in   Haze
4:37 PM -29.2 °F -36.4 °F 68% 30.20 in 3.0 mi Calm Calm - 0.00 in   Haze
4:56 PM -28.8 °F -35.9 °F 69% 30.22 in 8.0 mi Calm Calm - 0.00 in   Mostly Cloudy
5:03 PM -29.2 °F -36.4 °F 68% 30.20 in 10.0 mi Calm Calm - N/A   Partly Cloudy
5:27 PM -29.2 °F -36.4 °F 68% 30.20 in 10.0 mi Calm Calm - N/A   Mostly Cloudy
5:38 PM -29.2 °F -36.4 °F 68% 30.20 in 1.8 mi Calm Calm - N/A   Haze
5:49 PM -29.2 °F -36.4 °F 68% 30.19 in 3.0 mi Calm Calm - N/A   Haze
5:56 PM -28.8 °F -35.9 °F 69% 30.21 in 6.0 mi Calm Calm - N/A   Haze
6:30 PM -29.2 °F - N/A% 30.19 in 10.0 mi Calm Calm - N/A   Scattered Clouds
6:56 PM -29.9 °F - N/A% 30.20 in 10.0 mi Calm Calm - N/A   Clear
7:37 PM -29.2 °F -36.4 °F 68% 30.18 in 10.0 mi Calm Calm - N/A   Partly Cloudy
7:56 PM -27.9 °F -35.0 °F 69% 30.20 in 10.0 mi Calm Calm - 0.00 in   Clear
8:30 PM -29.2 °F - N/A% 30.18 in 10.0 mi Calm Calm - 0.00 in   Scattered Clouds
8:39 PM -29.2 °F - N/A% 30.18 in 10.0 mi Calm Calm - 0.00 in   Mostly Cloudy
8:56 PM -29.9 °F - N/A% 30.20 in 10.0 mi Calm Calm - 0.00 in   Overcast
9:56 PM -31.0 °F - N/A% 30.19 in 10.0 mi Calm Calm - N/A   Overcast
10:17 PM -31.0 °F - N/A% 30.17 in 10.0 mi Calm Calm - N/A   Scattered Clouds
10:56 PM -29.9 °F - N/A% 30.19 in 10.0 mi Calm Calm - N/A   Clear
11:26 PM -31.0 °F - N/A% 30.17 in 10.0 mi Calm Calm - N/A   Partly Cloudy
11:47 PM -32.8 °F - N/A% 30.17 in 10.0 mi Calm Calm - N/A   Mostly Cloudy
11:56 PM -31.9 °F - N/A% 30.18 in 10.0 mi Calm Calm - N/A   Scattered Clouds